Location: Lane
(33.5226°N, 79.8788°W)
Time: 13:18:13
(UTC+00:00)

SR - Pass Details

Date: 02 October 2022
Orbit: 577 x 875 km, 66.7° (Epoch: 29 November)

Event Time Altitude Azimuth Distance (km) Brightness Sun altitude
Rises 11:06:36 0° 340° (NNW) 3,290 ? -2.5°
Reaches altitude 10° 11:09:14 10° 346° (NNW) 2,310 ? -2.0°
Maximum altitude 11:14:16 45° 59° (ENE) 982 ? -0.9°
Drops below altitude 10° 11:18:51 10° 132° (SE) 2,107 ? 0.0°
Sets 11:21:09 0° 139° (SE) 2,971 ? 0.5°
